Flag for Germany Weather past 2 weeks in Celle, Lower Saxony, Germany

Now
57 °F

Passing clouds.


Feels Like: 57 °F
Forecast: 57 / 73 °F
Wind: No wind

Location: Celle Airport

Current Time: Sep 19, 2014 at 2:19:46 AM

Latest Report: Sep 19, 2014 at 1:20 AM


Visibility: N/A

Pressure: 29.92 "Hg

Humidity: 94%

Dew point: 55 °F

Location of CelleLocation

Historic Weather in Celle — Graph

°F

Celle temperature yesterday

Maximum temperature yesterday: 75 °F (at 4:20 PM)
Minimum temperature yesterday: 55 °F (at 7:20 AM)
Average temperature yesterday: 65 °F

Past Weeks' High & Low Weather Summary

 TemperatureHumidityPressure
High79 °F (Sep 6, 2:20 PM)100% (Sep 6, 7:20 AM)30.24 "Hg (Sep 6, 7:20 AM)
Low48 °F (Sep 8, 6:20 AM)47% (Sep 17, 4:20 PM)29.86 "Hg (Sep 6, 3:20 PM)
Average62 °F83%30.05 "Hg
* Reported Sep 4 12:20 AM — Sep 19 12:20 AM, Celle, Weather by CustomWeather, © 2014

Note: Actual official high and low records may vary slightly from our data, if they occured in-between our weather recording intervals... More about our weather records

Advertising

Celle weather history for previous 24 hours

 ConditionsComfort  
Time TempWeatherWind HumidityBarometerVisibility
12:20 AM
Sep 19
61 °FPassing clouds.2 mph88%29.92 "HgN/A
11:20 PM
Sep 18
63 °FMild.2 mph83%29.92 "HgN/A
10:20 PM63 °FPassing clouds.2 mph83%29.92 "HgN/A
9:20 PM66 °FPassing clouds.3 mph73%29.92 "HgN/A
8:20 PM68 °FPassing clouds.5 mph73%29.89 "HgN/A
7:20 PM70 °FPassing clouds.5 mph69%29.89 "HgN/A
6:20 PM73 °FPassing clouds.6 mph61%29.89 "HgN/A
5:20 PM75 °FPassing clouds.8 mph54%29.89 "HgN/A
4:20 PM75 °FPassing clouds.9 mph54%29.89 "HgN/A
3:20 PM73 °FPassing clouds.8 mph61%29.89 "HgN/A
2:20 PM73 °FPassing clouds.9 mph57%29.89 "HgN/A
1:20 PM72 °FMild.8 mph61%29.89 "HgN/A
12:20 PM70 °FMild.9 mph69%29.92 "HgN/A
11:20 AM68 °FMild.8 mph69%29.92 "HgN/A
10:20 AM64 °FMild.7 mph78%29.92 "Hg5 mi
9:20 AM61 °FCool.7 mph88%29.92 "Hg4 mi
8:20 AM59 °FCool.6 mph88%29.92 "Hg4 mi
7:20 AM55 °FCool.5 mph100%29.92 "Hg4 mi
6:20 AM57 °FCool.3 mph94%29.92 "Hg4 mi
5:20 AM57 °FCool.6 mph94%29.92 "Hg4 mi
4:20 AM59 °FCool.5 mph88%29.92 "HgN/A
3:20 AM59 °FCool.6 mph88%29.92 "HgN/A
2:20 AM61 °FPassing clouds.7 mph88%29.92 "HgN/A
Weather by CustomWeather, © 2014

See weather overviewHow to use our weather pages